[[{"header":{"parameterUnit":"m.s-1","parameterCategory":2,"la1":30.2991,"la2":30.254,"lo1":-89.0895,"lo2":-89.0444,"dy":0.0017,"dx":0.0017,"nx":28,"ny":28,"refTime":"2023-10-22T21:00:00:Z","depth":"0","parameterNumber":2,"parameterNumberName":"U-component_of_CURRENTS"},"data":[0,0,0,0,0,0,0,0,0,0,0,0,0,0,0,0,0,0,0,0,0,0,0,0,0,0,0,0,0,0,0,0,0,0,0,0,0,0,0,0,0,0,0,0,0,0,0,0,0,0,0,0,0,0,0,0,0,0,0.3653,0.3652,0,0.3546,0.3544,0.3543,0.3529,0.3531,0.3532,0.3533,0.3474,0.3471,0.3468,0,0,0,0,0,0,0,0,0,0,0,0,0,0.3864,0.3859,0.3653,0.3652,0.3651,0.3546,0.3544,0.3542,0.3529,0.3531,0.3532,0.3534,0.3475,0.3471,0.3468,0,0,0,0,0,0,0,0,0,0,0,0,0,0.3763,0.3858,0.3653,0.3634,0.3631,0.3546,0.3544,0.3542,0.3529,0.3531,0.3533,0.3535,0.3476,0.3472,0.3467,0.34,0,0,0.3454,0.3452,0,0,0,0,0,0,0,0,0.3768,0.3754,0.3638,0.3635,0.3632,0.3556,0.3597,0.3498,0.3528,0.3564,0.3533,0.3536,0.3506,0.35,0.3469,0.3398,0.3395,0.3454,0.3451,0.3449,0.3448,0,0,0,0,0,0,0,0.3775,0.3759,0.3607,0.3637,0.3633,0.3637,0.3625,0.3578,0.3523,0.3561,0.3561,0.3554,0.3505,0.3473,0.3468,0.3394,0.3454,0.345,0.3448,0.3446,0.3355,0.3355,0,0,0,0,0,0,0.3791,0.3765,0.361,0.3604,0.371,0.3632,0.3618,0.3576,0.3523,0.3517,0.3552,0.3553,0.348,0.3473,0.3466,0.3462,0.345,0.3446,0.3443,0.3355,0.3355,0.3355,0,0,0,0,0,0,0.3795,0.3777,0.3615,0.3688,0.3668,0.3626,0.3579,0.3572,0.3558,0.3516,0.3511,0.3548,0.3481,0.3472,0.3451,0.3457,0.3444,0.344,0.3354,0.3355,0.3355,0.3403,0,0,0,0,0,0,0.3801,0.3778,0.3757,0.3687,0.3664,0.3582,0.3577,0.3569,0.3552,0.3553,0.351,0.3506,0.3482,0.3458,0.3447,0.3451,0.3436,0.3354,0.3355,0.3355,0.3401,0.3405,0.3408,0,0,0,0,0,0.3808,0.3759,0.3756,0.3738,0.3634,0.3583,0.3571,0.3548,0.355,0.3542,0.3524,0.3508,0.3453,0.3454,0.3442,0.3444,0.3354,0.3354,0.3355,0.34,0.3404,0.3408,0,0,0,0,0,0,0.3798,0.3751,0.3746,0.3674,0.3648,0.3583,0.3565,0.3552,0.3525,0.3535,0.35,0.3493,0.3482,0.3451,0.3454,0.342,0.3403,0.3401,0.3442,0.3446,0.3449,0.3496,0.3433,0,0,0,0,0,0.3796,0.3771,0.3722,0.3667,0.3658,0.3616,0.3594,0.3585,0.355,0.354,0.351,0.3485,0.3464,0.345,0.3424,0.339,0.3432,0.3387,0.339,0.3393,0.3423,0.3491,0.3504,0.3356,0.3356,0.3356,0,0,0.3773,0.3746,0.3727,0.367,0.3643,0.3639,0.3607,0.358,0.3581,0.3537,0.3523,0.3495,0.3461,0.344,0.3431,0.3419,0.3458,0.3394,0.3397,0.3426,0.3493,0.3508,0.3521,0.3356,0.3356,0.3356,0,0,0.3762,0.3697,0.371,0.3694,0.3679,0.3647,0.365,0.3603,0.3591,0.3565,0.355,0.3537,0.3474,0.3468,0.3453,0.3456,0.3479,0.3435,0.3481,0.3545,0.3559,0.3572,0.3657,0.3677,0.343,0.343,0.343,0,0.3757,0.374,0.3701,0.372,0.3704,0.3663,0.3673,0.3646,0.3603,0.3589,0.3576,0.3522,0.3496,0.3493,0.3502,0.3467,0.3517,0.3468,0.3554,0.3567,0.358,0.3664,0.3686,0.3433,0.3432,0.3432,0.3432,0,0.3789,0.377,0.3763,0.3781,0.3756,0.3742,0.3713,0.3692,0.3662,0.3638,0.362,0.3585,0.3558,0.3542,0.3523,0.358,0.3595,0.3559,0.3553,0.3599,0.3683,0.3705,0.3436,0.3435,0.3434,0.3434,0,0,0.3808,0.3797,0.3801,0.3809,0.3784,0.376,0.3754,0.3726,0.3722,0.3688,0.3682,0.3657,0.3638,0.3625,0.3598,0.3653,0.3782,0.3651,0.3653,0.3754,0.3959,0.3744,0.3748,0.3767,0.377,0.3773,0.3989,0,0.3861,0.3894,0.3871,0.3879,0.3883,0.3828,0.3816,0.3787,0.3748,0.3729,0.3706,0.3695,0.3668,0.3662,0.3712,0.3755,0.384,0.3729,0.3885,0.3891,0.3708,0.3764,0.3506,0.3655,0.401,0.4014,0.4016,0,0.3941,0.3938,0.3959,0.3918,0.3914,0.3911,0.3862,0.3848,0.3813,0.3787,0.3776,0.3753,0.3807,0.3779,0.3923,0.3856,0.3934,0.3978,0.3986,0.3788,0.3714,0.3662,0.3682,0.3553,0.405,0.4047,0.4045,0,0.4,0.4001,0.4006,0.3996,0.3952,0.3942,0.3913,0.3871,0.3843,0.384,0.3827,0.3865,0.3884,0.3986,0.4035,0.4013,0.42,0.417,0.4068,0.4056,0.3866,0.3827,0.3789,0.4325,0.4325,0.4324,0.4323,0,0.406,0.4058,0.4035,0.4031,0.4015,0.3984,0.3959,0.3932,0.3902,0.3873,0.387,0.3866,0.3944,0.4011,0.4089,0.412,0.4247,0.4106,0.4094,0.387,0.3831,0.3729,0.3719,0.4332,0.433,0.4329,0.4327,0,0.4088,0.4093,0.4084,0.4051,0.4041,0.4023,0.3965,0.3941,0.3934,0.3902,0.391,0.3915,0.3994,0.4056,0.4213,0.4155,0.4089,0.4225,0.395,0.3896,0.3596,0.3598,0.3501,0.3418,0.4153,0.4149,0.4145,0,0.4077,0.4092,0.408,0.4066,0.4041,0.4012,0.398,0.3955,0.3923,0.3913,0.3899,0.3959,0.3961,0.4062,0.3997,0.4069,0.4003,0.3834,0.3712,0.3552,0.3552,0.3462,0.3397,0.3526,0.3517,0.3511,0.3505,0,0.4031,0.4054,0.4039,0.4032,0.4011,0.3968,0.3931,0.3918,0.3885,0.3873,0.3856,0.3875,0.3875,0.3743,0.3741,0.3744,0.3568,0.369,0.3612,0.3122,0.2944,0.2862,0.3447,0.3445,0.3451,0.3455,0.3459,0.3461,0.3976,0.397,0.3988,0.396,0.3947,0.3915,0.3858,0.3833,0.3796,0.3714,0.3782,0.3693,0.3504,0.3429,0.34,0.3053,0.3207,0.2906,0.2959,0.2911,0.2682,0.3111,0.3005,0.3008,0.3011,0.3014,0.3016,0,0.3898,0.3917,0.3899,0.3883,0.3848,0.386,0.38,0.3711,0.3644,0.3569,0.353,0.3229,0.3027,0.2857,0.2489,0.2328,0.228,0.2258,0.2119,0.2125,0.258,0.2391,0.2034,0.2034,0.2034,0.2034,0.2034,0.2034,0.3866,0.3851,0.385,0.3785,0.3768,0.3671,0.3625,0.3488,0.3382,0.3097,0.286,0.2785,0.252,0.2173,0.1853,0.1807,0.1729,0.1585,0.1726,0.2062,0.2128,0.219,0.2006,0.1573,0.1573,0.1107,0.1103,0.1101]},{"header":{"parameterUnit":"m.s-1","parameterCategory":2,"la1":30.2991,"la2":30.254,"lo1":-89.0895,"lo2":-89.0444,"dy":0.0017,"dx":0.0017,"nx":28,"ny":28,"refTime":"2023-10-22T21:00:00:Z","depth":"0","parameterNumber":3,"parameterNumberName":"V-component_of_CURRENTS"},"data":[0,0,0,0,0,0,0,0,0,0,0,0,0,0,0,0,0,0,0,0,0,0,0,0,0,0,0,0,0,0,0,0,0,0,0,0,0,0,0,0,0,0,0,0,0,0,0,0,0,0,0,0,0,0,0,0,0,0,-0.0398,-0.0399,0,-0.0559,-0.0562,-0.0564,-0.0698,-0.0698,-0.0698,-0.0699,-0.078,-0.0782,-0.0784,0,0,0,0,0,0,0,0,0,0,0,0,0,-0.0415,-0.0414,-0.0398,-0.0399,-0.04,-0.0558,-0.0562,-0.0565,-0.0698,-0.0698,-0.0698,-0.0699,-0.078,-0.0782,-0.0784,0,0,0,0,0,0,0,0,0,0,0,0,0,-0.0485,-0.0414,-0.0398,-0.0477,-0.0485,-0.0558,-0.0562,-0.0566,-0.0698,-0.0698,-0.0699,-0.0699,-0.0779,-0.0782,-0.0784,-0.0791,0,0,-0.0793,-0.0794,0,0,0,0,0,0,0,0,-0.0481,-0.0486,-0.0464,-0.0471,-0.048,-0.0599,-0.0598,-0.0633,-0.0697,-0.0629,-0.0699,-0.0699,-0.0704,-0.0713,-0.076,-0.0795,-0.0798,-0.0793,-0.0795,-0.0796,-0.0797,0,0,0,0,0,0,0,-0.0476,-0.0481,-0.0473,-0.0465,-0.0474,-0.0575,-0.0585,-0.0607,-0.0669,-0.0635,-0.0642,-0.0641,-0.071,-0.0757,-0.0762,-0.0799,-0.0793,-0.0795,-0.0797,-0.0798,-0.0826,-0.0825,0,0,0,0,0,0,-0.0421,-0.0475,-0.0468,-0.0477,-0.0469,-0.0572,-0.0584,-0.0569,-0.0671,-0.0684,-0.0641,-0.0647,-0.0752,-0.0759,-0.0765,-0.0744,-0.0796,-0.0799,-0.08,-0.0827,-0.0826,-0.0825,0,0,0,0,0,0,-0.042,-0.0418,-0.0461,-0.0472,-0.0483,-0.0569,-0.0553,-0.0572,-0.0608,-0.0674,-0.0688,-0.0653,-0.0753,-0.0761,-0.0792,-0.0748,-0.08,-0.0802,-0.0828,-0.0827,-0.0826,-0.0721,0,0,0,0,0,0,-0.042,-0.0417,-0.0395,-0.0467,-0.048,-0.0479,-0.0552,-0.0574,-0.0601,-0.0611,-0.0689,-0.0699,-0.0754,-0.0788,-0.0795,-0.0753,-0.0804,-0.0829,-0.0828,-0.0826,-0.0726,-0.0716,-0.0708,0,0,0,0,0,-0.042,-0.0373,-0.0393,-0.0392,-0.0444,-0.0476,-0.0493,-0.0567,-0.06,-0.0605,-0.0676,-0.0696,-0.0781,-0.079,-0.0799,-0.0756,-0.083,-0.0828,-0.0826,-0.073,-0.0718,-0.0708,0,0,0,0,0,0,-0.0358,-0.0383,-0.0407,-0.0366,-0.0406,-0.0494,-0.0499,-0.0548,-0.0613,-0.0619,-0.0697,-0.0712,-0.0721,-0.0754,-0.0762,-0.076,-0.0802,-0.0802,-0.0726,-0.0716,-0.0707,-0.0642,-0.0807,0,0,0,0,0,-0.033,-0.0313,-0.0354,-0.0324,-0.0334,-0.0415,-0.0439,-0.0483,-0.0543,-0.0574,-0.0633,-0.0686,-0.0722,-0.0731,-0.0774,-0.077,-0.0721,-0.0745,-0.0736,-0.0728,-0.0682,-0.0583,-0.056,-0.0818,-0.0818,-0.0818,0,0,-0.0298,-0.0308,-0.0299,-0.0312,-0.0354,-0.0367,-0.0434,-0.0448,-0.0461,-0.0565,-0.0603,-0.0658,-0.0717,-0.073,-0.0733,-0.0748,-0.0629,-0.0726,-0.0718,-0.0675,-0.0578,-0.0552,-0.0529,-0.0817,-0.0817,-0.0817,0,0,-0.0255,-0.023,-0.0227,-0.0242,-0.0275,-0.0313,-0.0303,-0.0377,-0.0408,-0.0444,-0.0523,-0.0543,-0.0614,-0.0642,-0.0664,-0.0621,-0.0593,-0.0641,-0.0533,-0.0439,-0.0415,-0.0394,-0.0288,-0.0258,-0.0627,-0.0627,-0.0627,0,-0.0229,-0.0217,-0.0229,-0.0232,-0.0234,-0.0277,-0.0278,-0.0306,-0.0384,-0.0383,-0.0431,-0.0502,-0.056,-0.0545,-0.0549,-0.0593,-0.0534,-0.057,-0.0421,-0.0399,-0.0379,-0.0276,-0.0244,-0.0622,-0.0622,-0.0623,-0.0623,0,-0.0213,-0.0191,-0.0177,-0.0195,-0.019,-0.0185,-0.0205,-0.0206,-0.0238,-0.027,-0.0264,-0.0345,-0.0371,-0.0401,-0.047,-0.0366,-0.0368,-0.0425,-0.0435,-0.0345,-0.0244,-0.0212,-0.0614,-0.0616,-0.0618,-0.0619,0,0,-0.0225,-0.018,-0.0186,-0.017,-0.0166,-0.0161,-0.0129,-0.012,-0.0081,-0.0129,-0.0081,-0.0152,-0.0169,-0.0193,-0.0263,-0.0195,-0.0025,-0.0241,-0.0239,-0.0111,0.0215,0.0135,0.0161,-0.0052,-0.0046,-0.0042,0.0234,0,-0.0236,-0.0209,-0.0188,-0.0152,-0.0136,-0.0111,-0.0074,-0.0049,-0.0035,0.001,-0.0004,0.0001,-0.0095,-0.0099,-0.0039,-0.0041,0.0061,-0.0092,0.0089,0.0096,0.0033,0.0196,0.0125,0.0357,0.0264,0.027,0.0273,0,-0.0273,-0.0239,-0.02,-0.0111,-0.01,-0.0073,0.0018,0.0047,0.0132,0.0151,0.02,0.0185,0.0262,0.0164,0.0311,0.022,0.0251,0.026,0.0269,0.019,0.0075,0.0247,0.0418,0.0314,0.0322,0.0318,0.0314,0,-0.0308,-0.0253,-0.0209,-0.0187,-0.0096,-0.0054,-0.0005,0.0085,0.0148,0.0257,0.033,0.0404,0.0455,0.0524,0.0521,0.0448,0.0698,0.0594,0.0573,0.0568,0.0544,0.0525,0.0659,0.0757,0.0757,0.0756,0.0755,0,-0.0333,-0.0298,-0.0217,-0.0189,-0.0108,-0.0049,0.0057,0.0122,0.0247,0.0364,0.0404,0.0517,0.0553,0.0663,0.0653,0.0731,0.0821,0.0664,0.0656,0.0572,0.0554,0.0484,0.0419,0.0766,0.0764,0.0762,0.076,0,-0.0359,-0.0319,-0.0254,-0.0155,-0.0119,-0.0057,0.0093,0.0188,0.0294,0.0462,0.0511,0.0661,0.0813,0.0846,0.0972,0.0902,0.0916,0.0963,0.0861,0.0834,0.0659,0.0601,0.0779,0.0748,0.1023,0.1023,0.1023,0,-0.035,-0.0327,-0.0229,-0.0173,-0.0121,-0.0019,0.0072,0.0193,0.0308,0.0549,0.0646,0.0836,0.0983,0.114,0.1071,0.1115,0.0994,0.1021,0.0847,0.071,0.0643,0.059,0.0547,0.088,0.0879,0.0878,0.0877,0,-0.0315,-0.0297,-0.0232,-0.0132,-0.0042,0.007,0.0205,0.0299,0.0474,0.0636,0.0874,0.1017,0.1145,0.1173,0.1164,0.1121,0.0913,0.0998,0.0911,0.0615,0.0524,0.0465,0.0638,0.0868,0.0869,0.087,0.087,0.0871,-0.0274,-0.0226,-0.015,-0.0052,0.0045,0.0174,0.0287,0.0443,0.0641,0.0919,0.102,0.1271,0.1218,0.1207,0.1117,0.0849,0.089,0.0735,0.0711,0.0698,0.0564,0.0711,0.0861,0.0862,0.0862,0.0863,0.0864,0,-0.0196,-0.0145,-0.0059,0.0067,0.018,0.0215,0.0403,0.0535,0.0775,0.1028,0.1247,0.1376,0.1268,0.1112,0.0773,0.0593,0.0511,0.0496,0.0417,0.0411,0.0608,0.0485,0.0491,0.0491,0.0492,0.0492,0.0492,0.0492,-0.0137,-0.0052,-0.0014,0.0174,0.0263,0.043,0.0542,0.0727,0.0924,0.1227,0.1415,0.1562,0.1411,0.0824,0.0421,0.0333,0.0229,0.0196,0.0198,0.0288,0.0307,0.0325,0.0195,0.0141,0.0141,-0.0026,-0.0028,-0.0029]}],[{"header":{"parameterUnit":"m.s-1","parameterCategory":2,"la1":30.2991,"la2":30.254,"lo1":-89.0895,"lo2":-89.0444,"dy":0.0017,"dx":0.0017,"nx":28,"ny":28,"refTime":"2023-10-22T21:00:00:Z","depth":"2","parameterNumber":2,"parameterNumberName":"U-component_of_CURRENTS"},"data":[0,0,0,0,0,0,0,0,0,0,0,0,0,0,0,0,0,0,0,0,0,0,0,0,0,0,0,0,0,0,0,0,0,0,0,0,0,0,0,0,0,0,0,0,0,0,0,0,0,0,0,0,0,0,0,0,0,0,0.1953,0.1953,0,0.1989,0.1989,0.1989,0.2052,0.2053,0.2055,0.2057,0.2052,0.2051,0.2049,0,0,0,0,0,0,0,0,0,0,0,0,0,0.1895,0.1896,0.1953,0.1953,0.1954,0.1989,0.1989,0.1989,0.2052,0.2053,0.2055,0.2057,0.2053,0.2051,0.2049,0,0,0,0,0,0,0,0,0,0,0,0,0,0.192,0.1896,0.1952,0.1993,0.1997,0.1989,0.1989,0.1989,0.2051,0.2054,0.2056,0.2058,0.2054,0.2051,0.2049,0.1986,0,0,0.2042,0.204,0,0,0,0,0,0,0,0,0.1919,0.1922,0.1986,0.199,0.1995,0.2022,0.1968,0.1988,0.2051,0.2026,0.2057,0.2059,0.204,0.2039,0.2034,0.1986,0.1985,0.2041,0.204,0.2039,0.2038,0,0,0,0,0,0,0,0.1917,0.192,0.1962,0.1987,0.1993,0.1995,0.2002,0.1971,0.2014,0.2028,0.2034,0.2045,0.2042,0.2036,0.2034,0.1985,0.2041,0.2039,0.2038,0.2037,0.2077,0.208,0,0,0,0,0,0,0.1921,0.1919,0.1961,0.1964,0.1967,0.1995,0.2002,0.2007,0.2016,0.2021,0.2042,0.2047,0.2039,0.2037,0.2035,0.2085,0.2039,0.2037,0.2035,0.2075,0.2078,0.2081,0,0,0,0,0,0,0.192,0.1924,0.196,0.1946,0.1952,0.1994,0.2,0.2007,0.2039,0.2028,0.2032,0.2072,0.2041,0.2038,0.2048,0.2081,0.2035,0.2033,0.2072,0.2076,0.2079,0.2105,0,0,0,0,0,0,0.1918,0.1923,0.193,0.1946,0.1953,0.1957,0.1998,0.2006,0.2042,0.2049,0.2053,0.2054,0.2043,0.2052,0.2046,0.2076,0.2031,0.2069,0.2074,0.2078,0.2101,0.2109,0.2116,0,0,0,0,0,0.1915,0.1888,0.1929,0.1935,0.196,0.1957,0.1959,0.1995,0.2041,0.2036,0.2068,0.2056,0.208,0.205,0.2043,0.2074,0.2066,0.2072,0.2078,0.2097,0.2107,0.2116,0,0,0,0,0,0,0.1837,0.1893,0.1939,0.1925,0.1954,0.197,0.1965,0.2008,0.2028,0.2051,0.2057,0.2057,0.2092,0.2079,0.2048,0.2109,0.2082,0.2087,0.21,0.2109,0.2117,0.2134,0.2029,0,0,0,0,0,0.1834,0.1845,0.1894,0.1883,0.1902,0.1949,0.1958,0.1993,0.2015,0.2029,0.2048,0.2077,0.2101,0.2103,0.2113,0.2112,0.2144,0.2142,0.215,0.2156,0.2171,0.2272,0.229,0.2099,0.2099,0.2099,0,0,0.1796,0.1831,0.1835,0.1872,0.1898,0.1917,0.1958,0.1976,0.201,0.202,0.2065,0.2096,0.2112,0.2137,0.2152,0.213,0.2223,0.2163,0.2168,0.218,0.228,0.2298,0.2315,0.2103,0.2102,0.2102,0,0,0.1731,0.1768,0.1773,0.1799,0.1857,0.189,0.1908,0.196,0.2003,0.2037,0.2088,0.2147,0.2147,0.2191,0.2205,0.2259,0.2268,0.2269,0.2302,0.2399,0.2415,0.243,0.2469,0.2487,0.2262,0.2263,0.2263,0,0.1697,0.1722,0.1765,0.1782,0.1811,0.1887,0.1906,0.1943,0.2,0.2047,0.2057,0.2167,0.218,0.2251,0.2285,0.2275,0.2315,0.2255,0.2408,0.2424,0.2438,0.2475,0.2494,0.2264,0.2264,0.2264,0.2264,0,0.1656,0.1685,0.1679,0.1751,0.1771,0.1793,0.1867,0.1921,0.1995,0.205,0.2152,0.2195,0.2269,0.2292,0.2296,0.2418,0.2406,0.2411,0.2377,0.2459,0.2492,0.2512,0.2267,0.2266,0.2266,0.2265,0,0,0.1593,0.1649,0.1659,0.1716,0.1774,0.1804,0.1851,0.194,0.2022,0.2088,0.2191,0.2263,0.2327,0.2355,0.2396,0.248,0.2609,0.2491,0.2495,0.2516,0.2796,0.2482,0.2473,0.2646,0.2651,0.2654,0.2767,0,0.158,0.1623,0.164,0.1699,0.175,0.1814,0.1858,0.1944,0.2029,0.2139,0.2232,0.2329,0.2337,0.2401,0.2488,0.2586,0.2669,0.2576,0.2727,0.2731,0.2432,0.2489,0.2363,0.2426,0.2786,0.279,0.2792,0,0.1576,0.1621,0.1667,0.1758,0.1782,0.1812,0.195,0.1999,0.2133,0.2197,0.2304,0.2377,0.2509,0.2519,0.271,0.2652,0.2738,0.2805,0.2811,0.2524,0.2454,0.2412,0.2449,0.2825,0.2823,0.282,0.2818,0,0.161,0.1658,0.1714,0.1738,0.1823,0.1869,0.1926,0.2035,0.2099,0.2257,0.2318,0.2466,0.2549,0.2693,0.2773,0.2783,0.2961,0.2989,0.2787,0.2766,0.2688,0.2647,0.3159,0.3159,0.3159,0.3158,0.3158,0,0.1638,0.1704,0.1743,0.1793,0.1874,0.1913,0.2011,0.209,0.2187,0.2256,0.2365,0.2424,0.2608,0.2698,0.2803,0.2794,0.2979,0.2796,0.2779,0.2682,0.2642,0.3016,0.2998,0.3163,0.3162,0.3161,0.316,0,0.1715,0.1728,0.181,0.188,0.1901,0.1978,0.2043,0.2108,0.2192,0.2285,0.2332,0.2431,0.2504,0.2619,0.2817,0.2772,0.2845,0.281,0.2624,0.2576,0.2594,0.2577,0.263,0.262,0.2612,0.2604,0.2599,0,0.1777,0.1814,0.1876,0.1904,0.1944,0.2025,0.206,0.2127,0.2157,0.2256,0.2282,0.2364,0.236,0.2431,0.2451,0.2512,0.265,0.2346,0.232,0.2564,0.2545,0.2541,0.2535,0.2266,0.2258,0.2251,0.2246,0,0.1886,0.1888,0.1938,0.1969,0.2006,0.2044,0.2084,0.2086,0.2138,0.2188,0.2192,0.2194,0.2195,0.2116,0.2084,0.2111,0.2306,0.2193,0.2595,0.2332,0.2206,0.2189,0.2201,0.2186,0.2192,0.2197,0.22,0.2202,0.1951,0.1984,0.1986,0.2007,0.2046,0.2024,0.2009,0.2004,0.2005,0.1977,0.2025,0.1954,0.1927,0.1773,0.1728,0.1711,0.1883,0.1845,0.1877,0.1913,0.1763,0.1619,0.1462,0.1464,0.1466,0.1467,0.1468,0,0.199,0.1987,0.2011,0.1983,0.1966,0.2009,0.1984,0.1898,0.1826,0.1805,0.1763,0.1553,0.1454,0.1462,0.1366,0.1295,0.1413,0.1218,0.143,0.1487,0.1539,0.138,0.0974,0.0972,0.097,0.0969,0,0,0.2005,0.1999,0.1964,0.1878,0.1867,0.1798,0.1765,0.1659,0.1597,0.1431,0.1368,0.1389,0.1411,0.1189,0.1139,0.1055,0.1268,0.0998,0.1402,0.1712,0.1762,0.1905,0.1719,0,0,0,0,0]},{"header":{"parameterUnit":"m.s-1","parameterCategory":2,"la1":30.2991,"la2":30.254,"lo1":-89.0895,"lo2":-89.0444,"dy":0.0017,"dx":0.0017,"nx":28,"ny":28,"refTime":"2023-10-22T21:00:00:Z","depth":"2","parameterNumber":3,"parameterNumberName":"V-component_of_CURRENTS"},"data":[0,0,0,0,0,0,0,0,0,0,0,0,0,0,0,0,0,0,0,0,0,0,0,0,0,0,0,0,0,0,0,0,0,0,0,0,0,0,0,0,0,0,0,0,0,0,0,0,0,0,0,0,0,0,0,0,0,0,0.0175,0.0175,0,0.022,0.0221,0.0221,0.0228,0.0228,0.0228,0.0227,0.0212,0.0212,0.0212,0,0,0,0,0,0,0,0,0,0,0,0,0,0.0116,0.0117,0.0174,0.0175,0.0176,0.022,0.0221,0.0221,0.0228,0.0228,0.0228,0.0227,0.0212,0.0212,0.0212,0,0,0,0,0,0,0,0,0,0,0,0,0,0.0149,0.0117,0.0174,0.0185,0.0186,0.022,0.0221,0.0221,0.0228,0.0228,0.0227,0.0227,0.0212,0.0212,0.0212,0.0222,0,0,0.0212,0.0211,0,0,0,0,0,0,0,0,0.0147,0.0151,0.0183,0.0184,0.0186,0.0219,0.0195,0.0219,0.0229,0.0212,0.0227,0.0227,0.0209,0.0209,0.0219,0.0221,0.022,0.0212,0.0211,0.0211,0.0211,0,0,0,0,0,0,0,0.0145,0.0149,0.0192,0.0184,0.0186,0.0195,0.0199,0.02,0.0211,0.0213,0.0214,0.022,0.021,0.0219,0.0219,0.022,0.0212,0.0211,0.0211,0.0211,0.0181,0.018,0,0,0,0,0,0,0.014,0.0147,0.0191,0.0193,0.0166,0.0197,0.0201,0.0208,0.0213,0.0214,0.0221,0.022,0.022,0.0219,0.0218,0.0189,0.0211,0.0211,0.0211,0.0182,0.0181,0.018,0,0,0,0,0,0,0.0138,0.0143,0.0189,0.0172,0.0178,0.0198,0.0206,0.0209,0.0194,0.0219,0.0219,0.0199,0.0219,0.0218,0.0212,0.019,0.0211,0.0211,0.0183,0.0182,0.018,0.0157,0,0,0,0,0,0,0.0137,0.0143,0.0134,0.0171,0.0179,0.0195,0.0207,0.0211,0.02,0.02,0.0201,0.0201,0.0219,0.0212,0.0212,0.019,0.0211,0.0184,0.0182,0.0181,0.0159,0.0155,0.0152,0,0,0,0,0,0.0134,0.0139,0.0134,0.0139,0.0171,0.0194,0.0198,0.0211,0.0199,0.0193,0.02,0.0199,0.0202,0.0212,0.0212,0.0189,0.0184,0.0183,0.0181,0.016,0.0156,0.0152,0,0,0,0,0,0,0.0108,0.0141,0.0136,0.0148,0.0158,0.0195,0.0196,0.0192,0.0193,0.0185,0.0198,0.0199,0.0185,0.0189,0.0198,0.0176,0.0189,0.0187,0.0173,0.0169,0.0166,0.0212,0.0211,0,0,0,0,0,0.0098,0.011,0.0132,0.0139,0.0143,0.0157,0.0162,0.0166,0.0179,0.0177,0.0173,0.0173,0.0183,0.0176,0.0183,0.017,0.0209,0.0152,0.0149,0.0146,0.0183,0.0207,0.021,0.0175,0.0175,0.0175,0,0,0.0092,0.0109,0.0116,0.0133,0.0145,0.0171,0.0159,0.0162,0.0179,0.0175,0.0176,0.0161,0.0177,0.0173,0.0164,0.0169,0.0176,0.0144,0.0142,0.0181,0.0206,0.021,0.0213,0.0174,0.0174,0.0174,0,0,0.0111,0.0097,0.0122,0.0133,0.0144,0.0156,0.0147,0.0156,0.015,0.0145,0.0153,0.0136,0.0125,0.015,0.016,0.0142,0.016,0.011,0.0129,0.015,0.0154,0.0158,0.0213,0.0223,0.0105,0.0105,0.0105,0,0.0099,0.0142,0.0129,0.0159,0.0183,0.0148,0.0187,0.0178,0.0177,0.0191,0.0139,0.015,0.0131,0.0179,0.0155,0.0138,0.0159,0.0142,0.0149,0.0153,0.0158,0.0214,0.0224,0.0103,0.0104,0.0104,0.0104,0,0.0157,0.0178,0.0192,0.0226,0.0237,0.0257,0.0255,0.0243,0.0208,0.0209,0.0206,0.0175,0.0198,0.0154,0.0142,0.0162,0.017,0.0144,0.0164,0.0161,0.0219,0.023,0.0101,0.0102,0.0102,0.0103,0,0,0.0176,0.0227,0.0231,0.0267,0.0277,0.0302,0.0316,0.0346,0.0379,0.0309,0.0364,0.0301,0.0266,0.0276,0.0239,0.0223,0.0239,0.018,0.0182,0.0247,0.0306,0.0175,0.0175,0.0197,0.0199,0.02,0.0335,0,0.023,0.0311,0.032,0.0389,0.0434,0.042,0.0451,0.046,0.0442,0.0472,0.0418,0.0435,0.0319,0.0315,0.028,0.0267,0.0267,0.0207,0.0292,0.0297,0.0188,0.0183,0.0183,0.029,0.0346,0.0348,0.035,0,0.0291,0.0346,0.0427,0.0502,0.052,0.054,0.0604,0.0623,0.0646,0.0635,0.0624,0.0593,0.0582,0.0464,0.0447,0.0406,0.036,0.0326,0.033,0.0233,0.0185,0.03,0.0309,0.037,0.0368,0.0366,0.0365,0,0.0338,0.0421,0.0493,0.0517,0.0585,0.0612,0.0632,0.0663,0.0704,0.0737,0.0777,0.0754,0.0756,0.0685,0.0572,0.0519,0.0557,0.0494,0.0353,0.0346,0.0382,0.0372,0.0499,0.0499,0.0498,0.0498,0.0498,0,0.0404,0.046,0.0512,0.0555,0.0638,0.0656,0.0732,0.0754,0.0811,0.0887,0.085,0.0902,0.0797,0.079,0.067,0.0547,0.0643,0.0379,0.0365,0.0368,0.0356,0.045,0.0442,0.0503,0.0502,0.0501,0.05,0,0.0436,0.0474,0.0559,0.0637,0.0657,0.0702,0.0775,0.0844,0.0882,0.0988,0.1009,0.104,0.0995,0.0903,0.0827,0.0679,0.0581,0.0519,0.0533,0.0512,0.0345,0.0335,0.0397,0.0393,0.039,0.0387,0.0385,0,0.0464,0.0511,0.0602,0.0651,0.0675,0.0741,0.08,0.0855,0.0938,0.106,0.1134,0.1138,0.1115,0.0967,0.0749,0.0575,0.0553,0.0444,0.0304,0.0351,0.0333,0.0327,0.0321,0.0378,0.0376,0.0374,0.0372,0,0.0521,0.0536,0.0607,0.0708,0.0769,0.0851,0.0933,0.1012,0.1105,0.1197,0.1294,0.128,0.1117,0.0909,0.0647,0.051,0.0455,0.0393,0.0505,0.0345,0.0326,0.0309,0.0306,0.0357,0.0359,0.036,0.0361,0.0361,0.0547,0.0596,0.0685,0.0776,0.0855,0.0949,0.1003,0.1116,0.1234,0.1339,0.136,0.1305,0.1109,0.0696,0.0511,0.0306,0.0297,0.0209,0.022,0.023,0.0145,0.0115,0.0096,0.0096,0.0096,0.0096,0.0096,0,0.0595,0.065,0.0755,0.0867,0.0956,0.0977,0.1099,0.1147,0.1262,0.1327,0.135,0.1116,0.0895,0.0672,0.034,0.013,0.0159,0.0068,0.017,0.0184,0.0197,0.0114,0.0056,0.0055,0.0055,0.0055,0,0,0.0626,0.0722,0.0783,0.0934,0.0998,0.1071,0.1115,0.1173,0.1213,0.1236,0.1187,0.1135,0.0886,0.0639,0.0404,0.023,0.0246,0.0185,0.0232,0.0393,0.0409,0.0286,0.0172,0,0,0,0,0]}],[{"header":{"parameterUnit":"m.s-1","parameterCategory":2,"la1":30.2991,"la2":30.254,"lo1":-89.0895,"lo2":-89.0444,"dy":0.0017,"dx":0.0017,"nx":28,"ny":28,"refTime":"2023-10-22T21:00:00:Z","depth":"4","parameterNumber":2,"parameterNumberName":"U-component_of_CURRENTS"},"data":[0,0,0,0,0,0,0,0,0,0,0,0,0,0,0,0,0,0,0,0,0,0,0,0,0,0,0,0,0,0,0,0,0,0,0,0,0,0,0,0,0,0,0,0,0,0,0,0,0,0,0,0,0,0,0,0,0,0,0.0024,0.0025,0,0.0052,0.0052,0.0052,0.0086,0.0087,0.0088,0.0089,0.0089,0.0088,0.0087,0,0,0,0,0,0,0,0,0,0,0,0,0,-0.0003,-0.0003,0.0024,0.0025,0.0025,0.0052,0.0052,0.0052,0.0086,0.0087,0.0088,0.0089,0.0089,0.0088,0.0087,0,0,0,0,0,0,0,0,0,0,0,0,0,0.0012,-0.0003,0.0024,0.0048,0.0051,0.0052,0.0052,0.0052,0.0086,0.0087,0.0089,0.009,0.0089,0.0088,0.0087,0.0054,0,0,0.0083,0.0083,0,0,0,0,0,0,0,0,0.0011,0.0013,0.0044,0.0047,0.005,0.007,0.0042,0.0052,0.0086,0.0069,0.0089,0.009,0.0081,0.008,0.0079,0.0054,0.0054,0.0083,0.0082,0.0082,0.0081,0,0,0,0,0,0,0,0.001,0.0012,0.0032,0.0045,0.0048,0.0056,0.006,0.0044,0.0065,0.0071,0.0074,0.0082,0.0082,0.008,0.0079,0.0054,0.0083,0.0082,0.0081,0.0081,0.0184,0.0187,0,0,0,0,0,0,0.0012,0.0011,0.0031,0.0033,0.0037,0.0056,0.006,0.0059,0.0066,0.0069,0.0081,0.0084,0.0081,0.008,0.0079,0.0148,0.0082,0.0081,0.008,0.0181,0.0185,0.0189,0,0,0,0,0,0,0.0011,0.0013,0.003,0.0026,0.0029,0.0056,0.0055,0.0059,0.0075,0.0074,0.0076,0.0095,0.0082,0.0081,0.0113,0.0145,0.008,0.0079,0.0177,0.0182,0.0187,0.0218,0,0,0,0,0,0,0.001,0.0012,0.0011,0.0025,0.0029,0.0043,0.0054,0.0059,0.0078,0.0082,0.0086,0.0087,0.0083,0.0115,0.0112,0.0142,0.0078,0.0172,0.0179,0.0185,0.0212,0.0223,0.0233,0,0,0,0,0,0.0009,0.0004,0.001,0.0013,0.0026,0.0044,0.0046,0.0068,0.0078,0.0086,0.0114,0.0087,0.0155,0.0116,0.0111,0.0142,0.0169,0.0177,0.0185,0.0208,0.0221,0.0233,0,0,0,0,0,0,-0.0005,0.0008,0.0015,0.0015,0.0034,0.0052,0.0055,0.0072,0.0097,0.0103,0.0108,0.0111,0.0156,0.0154,0.0111,0.0202,0.0166,0.0173,0.0186,0.0198,0.0208,0.025,0.0077,0,0,0,0,0,-0.001,-0.0008,0.0008,0.0014,0.0016,0.0036,0.0045,0.0062,0.0087,0.0098,0.0114,0.0145,0.018,0.0193,0.0213,0.024,0.0247,0.0271,0.0281,0.0289,0.0328,0.0367,0.0383,0.0214,0.0214,0.0214,0,0,-0.0011,-0.0004,-0.0001,0.0012,0.002,0.0034,0.0044,0.006,0.0094,0.0091,0.0141,0.0167,0.0198,0.0247,0.0268,0.0249,0.0338,0.0299,0.0305,0.034,0.0377,0.0393,0.0407,0.0219,0.0218,0.0218,0,0,-0.0012,-0.001,-0.0012,-0.0001,0.0017,0.0036,0.0045,0.0072,0.0103,0.0158,0.0178,0.0241,0.0274,0.0318,0.0342,0.0423,0.0388,0.0426,0.0503,0.054,0.0553,0.0565,0.0566,0.0578,0.0432,0.0432,0.0433,0,-0.0013,-0.0011,-0.0006,-0.0004,0.0017,0.004,0.0058,0.0086,0.0134,0.0185,0.0188,0.0314,0.0323,0.0411,0.0458,0.0443,0.0447,0.0438,0.0549,0.0561,0.0573,0.0571,0.0584,0.0435,0.0435,0.0434,0.0434,0,-0.0017,-0.0012,-0.0012,0.0005,0.003,0.0046,0.0089,0.0133,0.0187,0.0241,0.0352,0.0392,0.0482,0.0493,0.0503,0.0602,0.0569,0.0545,0.0503,0.0591,0.0584,0.0597,0.0438,0.0438,0.0437,0.0436,0,0,-0.0021,-0.0016,-0.0013,0.0009,0.0039,0.007,0.0128,0.0212,0.0288,0.0357,0.0463,0.0558,0.0604,0.064,0.0651,0.0698,0.0767,0.067,0.0671,0.0647,0.0828,0.0725,0.0727,0.0751,0.0754,0.0757,0.0777,0,-0.0019,-0.0014,0.0002,0.0048,0.0061,0.0115,0.0188,0.0274,0.0355,0.0457,0.0539,0.064,0.0647,0.0701,0.0752,0.0772,0.0809,0.0764,0.0771,0.0772,0.0649,0.0742,0.0767,0.0786,0.0789,0.0791,0.0792,0,-0.0021,-0.0012,0.0015,0.0096,0.0113,0.0169,0.031,0.0375,0.0511,0.0578,0.0689,0.0741,0.0852,0.0826,0.0922,0.089,0.0884,0.0885,0.0884,0.0797,0.0694,0.0693,0.0814,0.0813,0.0811,0.081,0.0808,0,-0.0017,0.0014,0.0048,0.0063,0.0147,0.0222,0.0301,0.0437,0.0511,0.0661,0.0728,0.0852,0.0916,0.0959,0.0958,0.096,0.1011,0.1,0.0898,0.0887,0.0952,0.094,0.1066,0.1066,0.1066,0.1066,0.1066,0,-0.0017,0.0013,0.0065,0.0084,0.019,0.0255,0.0387,0.0487,0.0608,0.0704,0.08,0.0871,0.0958,0.0981,0.0982,0.0965,0.1027,0.0946,0.0907,0.0962,0.0951,0.0958,0.0945,0.1067,0.1067,0.1066,0.1066,0,-0.0019,-0.0006,0.005,0.0147,0.0189,0.0282,0.0417,0.05,0.0625,0.0738,0.0788,0.0906,0.0967,0.0979,0.1025,0.0983,0.0975,0.0932,0.0965,0.0921,0.0829,0.0818,0.0893,0.089,0.0888,0.0886,0.0884,0,-0.0031,-0.001,0.0091,0.0131,0.0184,0.03,0.0375,0.0509,0.058,0.0746,0.0793,0.089,0.0949,0.0932,0.0948,0.0926,0.09,0.0875,0.0917,0.0868,0.0822,0.0815,0.0808,0.088,0.0879,0.0879,0.0878,0,-0.0038,0.0007,0.0048,0.0124,0.0209,0.029,0.0407,0.0452,0.0601,0.0696,0.0807,0.0849,0.089,0.0916,0.0862,0.0846,0.09,0.0849,0.0856,0.0896,0.0852,0.0807,0.0803,0.0869,0.087,0.0871,0.0872,0,-0.0034,-0.0004,0.0043,0.0125,0.0198,0.0273,0.0341,0.0434,0.0523,0.0708,0.0729,0.082,0.0898,0.087,0.0827,0.0797,0.0823,0.0802,0.0813,0.0822,0.0783,0.0715,0.069,0,0,0,0,0,-0.0026,-0.0006,0.0035,0.0117,0.0175,0.0236,0.0349,0.0407,0.0537,0.0608,0.0678,0.0722,0.0745,0.0775,0.0734,0.0769,0.0788,0.0713,0.076,0.082,0.0831,0.0787,0,0,0,0,0,0,-0.0028,0.0005,0.002,0.0075,0.0126,0.0203,0.0281,0.0371,0.0423,0.0553,0.0573,0.0664,0.0685,0.076,0.0718,0.0719,0.073,0.0757,0.0754,0.0815,0.0824,0.0832,0.079,0,0,0,0,0]},{"header":{"parameterUnit":"m.s-1","parameterCategory":2,"la1":30.2991,"la2":30.254,"lo1":-89.0895,"lo2":-89.0444,"dy":0.0017,"dx":0.0017,"nx":28,"ny":28,"refTime":"2023-10-22T21:00:00:Z","depth":"4","parameterNumber":3,"parameterNumberName":"V-component_of_CURRENTS"},"data":[0,0,0,0,0,0,0,0,0,0,0,0,0,0,0,0,0,0,0,0,0,0,0,0,0,0,0,0,0,0,0,0,0,0,0,0,0,0,0,0,0,0,0,0,0,0,0,0,0,0,0,0,0,0,0,0,0,0,0.0481,0.0481,0,0.0494,0.0494,0.0494,0.0536,0.0537,0.0539,0.054,0.0549,0.0548,0.0547,0,0,0,0,0,0,0,0,0,0,0,0,0,0.0447,0.0447,0.0481,0.0481,0.0481,0.0494,0.0494,0.0494,0.0536,0.0538,0.0539,0.054,0.0549,0.0548,0.0547,0,0,0,0,0,0,0,0,0,0,0,0,0,0.046,0.0448,0.0481,0.0505,0.0507,0.0494,0.0494,0.0494,0.0536,0.0538,0.0539,0.0541,0.055,0.0548,0.0547,0.0508,0,0,0.0544,0.0543,0,0,0,0,0,0,0,0,0.0459,0.0461,0.0501,0.0503,0.0506,0.0517,0.0486,0.0499,0.0536,0.0523,0.054,0.0542,0.0538,0.0538,0.0534,0.0508,0.0508,0.0544,0.0543,0.0543,0.0542,0,0,0,0,0,0,0,0.0458,0.046,0.0484,0.0501,0.0504,0.05,0.0504,0.0488,0.052,0.0524,0.0528,0.0532,0.0539,0.0535,0.0535,0.0509,0.0544,0.0543,0.0542,0.0542,0.0505,0.0505,0,0,0,0,0,0,0.046,0.0459,0.0484,0.0485,0.0488,0.05,0.0504,0.051,0.052,0.0524,0.053,0.0534,0.0536,0.0536,0.0535,0.0542,0.0543,0.0541,0.0541,0.0506,0.0505,0.0505,0,0,0,0,0,0,0.046,0.0462,0.0483,0.0474,0.0476,0.0499,0.0506,0.051,0.0528,0.0525,0.0529,0.0547,0.0538,0.0537,0.0541,0.0541,0.0541,0.054,0.0506,0.0506,0.0505,0.0521,0,0,0,0,0,0,0.0458,0.0462,0.0469,0.0474,0.0477,0.0491,0.0504,0.0509,0.0527,0.0532,0.054,0.0541,0.0539,0.0543,0.054,0.0539,0.0539,0.0506,0.0506,0.0505,0.0521,0.0522,0.0522,0,0,0,0,0,0.0457,0.0458,0.0469,0.0472,0.0485,0.0491,0.0492,0.0512,0.0527,0.0535,0.0542,0.0542,0.0538,0.0542,0.0539,0.0537,0.0507,0.0506,0.0505,0.0521,0.0521,0.0522,0,0,0,0,0,0,0.044,0.0462,0.0475,0.0481,0.0494,0.05,0.0509,0.0519,0.0529,0.0541,0.0539,0.054,0.0543,0.0534,0.0539,0.0525,0.0521,0.052,0.0534,0.0535,0.0535,0.0534,0.0538,0,0,0,0,0,0.044,0.0456,0.0469,0.0477,0.0486,0.0499,0.0506,0.0521,0.0529,0.0537,0.0542,0.0541,0.0531,0.0532,0.0525,0.0514,0.0468,0.051,0.051,0.0511,0.0507,0.0427,0.042,0.0503,0.0503,0.0503,0,0,0.0436,0.0451,0.046,0.0476,0.049,0.0501,0.0508,0.0526,0.0533,0.0533,0.0549,0.0545,0.0529,0.0524,0.0524,0.0521,0.0462,0.051,0.0511,0.0507,0.0426,0.0417,0.041,0.0503,0.0503,0.0503,0,0,0.0438,0.0451,0.047,0.048,0.0506,0.0511,0.0521,0.0537,0.0546,0.0557,0.0553,0.0546,0.0548,0.0525,0.0514,0.0506,0.0468,0.0513,0.0513,0.0436,0.0428,0.042,0.0347,0.0333,0.0512,0.0512,0.0512,0,0.0436,0.0457,0.0473,0.0491,0.0502,0.0519,0.0535,0.0536,0.0552,0.0548,0.0572,0.0546,0.0542,0.0502,0.0512,0.0506,0.046,0.0515,0.0435,0.0426,0.0418,0.0345,0.0329,0.0512,0.0512,0.0512,0.0512,0,0.0454,0.047,0.048,0.0513,0.0523,0.0538,0.0548,0.0556,0.0574,0.0572,0.0557,0.0543,0.0525,0.0521,0.0524,0.0464,0.0449,0.0444,0.0433,0.0411,0.0335,0.0318,0.0513,0.0513,0.0513,0.0513,0,0,0.0454,0.0487,0.0493,0.0512,0.0537,0.0549,0.0554,0.0555,0.0552,0.0561,0.0538,0.0528,0.0521,0.0506,0.049,0.0434,0.0347,0.0428,0.0423,0.0354,0.0175,0.0226,0.0212,0.033,0.0327,0.0325,0.0143,0,0.0467,0.0498,0.0512,0.0542,0.0558,0.0568,0.0575,0.0576,0.0568,0.0548,0.0514,0.0503,0.0511,0.0511,0.0449,0.038,0.0305,0.0397,0.0208,0.0202,0.0248,0.0195,0.0317,0.013,0.0126,0.0123,0.0121,0,0.0488,0.0502,0.0535,0.0561,0.0572,0.0603,0.0607,0.0611,0.0573,0.0561,0.0522,0.0498,0.0431,0.0442,0.0283,0.0344,0.0262,0.02,0.019,0.0221,0.0222,0.0157,0.009,0.0093,0.0095,0.0097,0.0099,0,0.0488,0.0521,0.055,0.056,0.0591,0.0621,0.0646,0.0631,0.062,0.0574,0.0554,0.0464,0.0434,0.0312,0.021,0.0241,0.0017,0.0035,-0.0016,-0.0014,-0.0011,-0.0001,-0.0109,-0.0109,-0.0108,-0.0108,-0.0107,0,0.0494,0.0516,0.0567,0.0582,0.0631,0.0654,0.0672,0.0683,0.0651,0.0628,0.0578,0.0526,0.0404,0.0276,0.017,0.0027,-0.0025,-0.0033,-0.0062,0.0001,0.0014,-0.0024,-0.0012,-0.0115,-0.0113,-0.0112,-0.0111,0,0.0491,0.0519,0.0558,0.061,0.064,0.0686,0.0718,0.0706,0.0699,0.0659,0.0654,0.0554,0.0421,0.0268,0.0062,-0.0004,-0.0159,-0.0206,-0.0143,-0.0163,-0.0131,-0.0116,-0.0277,-0.0277,-0.0276,-0.0276,-0.0276,0,0.0484,0.0508,0.0587,0.0619,0.066,0.0709,0.0732,0.0742,0.0726,0.0672,0.0655,0.0537,0.0457,0.0183,0.004,-0.0187,-0.0197,-0.0286,-0.0187,-0.0139,-0.0152,-0.0137,-0.0122,-0.0276,-0.0276,-0.0276,-0.0276,0,0.0462,0.0511,0.0537,0.0614,0.067,0.0711,0.076,0.0744,0.0739,0.0715,0.0648,0.0534,0.0376,0.02,0.0025,-0.0134,-0.0226,-0.0285,-0.0285,-0.0192,-0.014,-0.0149,-0.0135,-0.0275,-0.0276,-0.0276,-0.0276,0,0.0449,0.0466,0.0518,0.0595,0.0666,0.0732,0.0738,0.0735,0.0729,0.0692,0.0655,0.0507,0.0419,0.0223,0.0048,-0.0084,-0.0089,-0.0115,-0.0124,-0.0126,0.0001,0.0095,-0.0012,0,0,0,0,0,0.0426,0.0444,0.0489,0.0578,0.0657,0.0724,0.0762,0.0751,0.0738,0.0703,0.0691,0.0553,0.035,0.0246,0.0125,0.0058,-0.012,-0.0087,-0.0156,-0.0273,-0.0273,-0.0142,0,0,0,0,0,0,0.0397,0.0435,0.0466,0.0569,0.0638,0.0726,0.0767,0.0756,0.0736,0.0706,0.0591,0.0549,0.0337,0.0427,0.0133,0.0091,0.0037,-0.0184,-0.0186,-0.0273,-0.0273,-0.0273,-0.0138,0,0,0,0,0]}]]